• en Suisse
  • Liste des pays
  • À 7 jours
  • Température de l'eau
  • Carte satellitaire
  • Carte météo
  • Widgets météo
  • user-avatar
    Se connecter

    Météo par heure à Mbandaka

    Ce jour, 19 Octobre, Jeudi

    Heure Température Précipitation Vent Pression Humidité
    00:00 +24°C° 0,4 mm 1 m/s 732 mmHg 90%
    01:00 +22°C° 0 mm 0 m/s 732 mmHg 95%
    02:00 +21°C° 0,7 mm 0 m/s 732 mmHg 95%
    03:00 +21°C° 0,7 mm 0 m/s 732 mmHg 96%
    04:00 +21°C° 0,7 mm 0 m/s 731 mmHg 97%
    05:00 +22°C° 0,5 mm 0 m/s 732 mmHg 95%
    06:00 +25°C° 0,5 mm 1 m/s 733 mmHg 93%
    07:00 +26°C° 0 mm 1 m/s 733 mmHg 90%
    08:00 +27°C° 1,2 mm 1 m/s 733 mmHg 88%
    09:00 +28°C° 1,2 mm 1 m/s 733 mmHg 85%
    10:00 +29°C° 1,2 mm 1 m/s 733 mmHg 83%
    11:00 +30°C° 1 mm 1 m/s 732 mmHg 78%
    12:00 +31°C° 1 mm 1 m/s 732 mmHg 73%
    13:00 +33°C° 0 mm 1 m/s 732 mmHg 63%
    14:00 +32°C° 0,9 mm 1 m/s 731 mmHg 66%
    15:00 +31°C° 0,9 mm 1 m/s 731 mmHg 69%
    16:00 +31°C° 0,9 mm 1 m/s 731 mmHg 72%
    17:00 +29°C° 0,1 mm 1 m/s 731 mmHg 79%
    18:00 +25°C° 0,1 mm 0 m/s 731 mmHg 85%
    19:00 +24°C° 0,1 mm 0 m/s 731 mmHg 91%
    20:00 +23°C° 0 mm 0 m/s 732 mmHg 92%
    21:00 +25°C° 0 mm 1 m/s 732 mmHg 94%
    22:00 +25°C° 0 mm 1 m/s 732 mmHg 95%
    23:00 +24°C° 0 mm 1 m/s 732 mmHg 95%

    Demain, 20 Octobre, Vendredi

    Heure Température Précipitation Vent Pression Humidité
    00:00 +22°C° 0 mm 0 m/s 732 mmHg 95%
    01:00 +22°C° 0 mm 0 m/s 732 mmHg 96%
    02:00 +22°C° 0 mm 0 m/s 732 mmHg 96%
    03:00 +22°C° 0 mm 0 m/s 731 mmHg 96%
    04:00 +21°C° 0 mm 0 m/s 731 mmHg 97%
    05:00 +22°C° 0 mm 0 m/s 732 mmHg 93%
    06:00 +23°C° 0 mm 0 m/s 732 mmHg 89%
    07:00 +24°C° 0 mm 0 m/s 732 mmHg 85%
    08:00 +26°C° 0 mm 0 m/s 733 mmHg 74%
    09:00 +29°C° 0 mm 0 m/s 733 mmHg 63%
    10:00 +33°C° 0 mm 1 m/s 733 mmHg 52%
    11:00 +35°C° 0 mm 1 m/s 732 mmHg 46%
    12:00 +36°C° 0 mm 1 m/s 731 mmHg 40%
    13:00 +39°C° 0 mm 1 m/s 731 mmHg 34%
    14:00 +36°C° 0 mm 1 m/s 730 mmHg 39%
    15:00 +35°C° 0 mm 1 m/s 730 mmHg 44%
    16:00 +32°C° 0 mm 0 m/s 729 mmHg 49%
    17:00 +30°C° 0 mm 0 m/s 729 mmHg 54%
    18:00 +28°C° 0 mm 0 m/s 730 mmHg 59%
    19:00 +26°C° 0 mm 0 m/s 730 mmHg 65%
    20:00 +26°C° 0 mm 0 m/s 731 mmHg 66%
    21:00 +25°C° 0 mm 0 m/s 731 mmHg 68%
    22:00 +24°C° 0 mm 0 m/s 732 mmHg 70%
    23:00 +24°C° 0 mm 0 m/s 732 mmHg 71%

    Après-demain, 21 Octobre, Samedi

    Heure Température Précipitation Vent Pression Humidité
    00:00 +24°C° 0 mm 0 m/s 731 mmHg 72%
    01:00 +23°C° 0 mm 0 m/s 731 mmHg 73%
    02:00 +23°C° 0 mm 0 m/s 731 mmHg 75%
    03:00 +23°C° 0 mm 0 m/s 731 mmHg 77%
    04:00 +22°C° 0 mm 0 m/s 730 mmHg 79%
    05:00 +23°C° 0 mm 0 m/s 731 mmHg 77%
    06:00 +24°C° 0 mm 0 m/s 732 mmHg 74%
    07:00 +25°C° 0 mm 0 m/s 733 mmHg 72%
    08:00 +28°C° 0 mm 0 m/s 733 mmHg 65%
    09:00 +30°C° 0 mm 0 m/s 733 mmHg 58%
    10:00 +32°C° 0 mm 0 m/s 733 mmHg 51%
    11:00 +34°C° 0 mm 0 m/s 732 mmHg 46%
    12:00 +35°C° 0 mm 0 m/s 731 mmHg 42%
    13:00 +37°C° 0 mm 0 m/s 730 mmHg 37%
    14:00 +35°C° 0 mm 0 m/s 730 mmHg 43%
    15:00 +33°C° 0 mm 0 m/s 729 mmHg 49%
    16:00 +31°C° 0 mm 0 m/s 729 mmHg 55%
    17:00 +30°C° 0 mm 0 m/s 729 mmHg 59%
    18:00 +28°C° 0 mm 0 m/s 730 mmHg 63%
    19:00 +27°C° 0 mm 0 m/s 730 mmHg 67%
    20:00 +26°C° 0 mm 0 m/s 731 mmHg 70%
    21:00 +26°C° 0 mm 0 m/s 731 mmHg 73%
    22:00 +25°C° 0 mm 0 m/s 732 mmHg 76%
    23:00 +24°C° 0,1 mm 0 m/s 731 mmHg 80%

    22 Octobre, Dimanche

    Heure Température Précipitation Vent Pression Humidité
    00:00 +24°C° 0,1 mm 0 m/s 731 mmHg 83%
    01:00 +24°C° 0,1 mm 0 m/s 731 mmHg 87%
    02:00 +23°C° 0,8 mm 0 m/s 731 mmHg 90%
    03:00 +25°C° 0,8 mm 1 m/s 731 mmHg 94%
    04:00 +24°C° 0,8 mm 1 m/s 731 mmHg 97%
    05:00 +25°C° 0,8 mm 1 m/s 731 mmHg 97%
    06:00 +25°C° 0,8 mm 1 m/s 732 mmHg 96%
    07:00 +25°C° 0,8 mm 1 m/s 733 mmHg 95%
    08:00 +27°C° 0,4 mm 1 m/s 733 mmHg 88%
    09:00 +29°C° 0,4 mm 2 m/s 733 mmHg 81%
    10:00 +31°C° 0,4 mm 2 m/s 733 mmHg 74%
    11:00 +31°C° 1,8 mm 1 m/s 732 mmHg 73%
    12:00 +31°C° 1,8 mm 1 m/s 731 mmHg 73%
    13:00 +32°C° 1,8 mm 1 m/s 730 mmHg 72%
    14:00 +31°C° 1 mm 1 m/s 730 mmHg 73%
    15:00 +31°C° 1 mm 1 m/s 729 mmHg 73%
    16:00 +31°C° 1 mm 1 m/s 729 mmHg 74%
    17:00 +29°C° 0 mm 1 m/s 729 mmHg 79%
    18:00 +28°C° 0 mm 1 m/s 730 mmHg 83%
    19:00 +26°C° 0 mm 1 m/s 730 mmHg 88%
    20:00 +26°C° 0 mm 1 m/s 731 mmHg 89%
    21:00 +26°C° 0 mm 1 m/s 731 mmHg 90%
    22:00 +25°C° 0 mm 1 m/s 731 mmHg 91%
    23:00 +25°C° 0 mm 1 m/s 731 mmHg 92%

    23 Octobre, Lundi

    Heure Température Précipitation Vent Pression Humidité
    00:00 +25°C° 0 mm 1 m/s 730 mmHg 93%
    01:00 +25°C° 0 mm 1 m/s 730 mmHg 94%
    02:00 +24°C° 0 mm 1 m/s 730 mmHg 95%
    03:00 +24°C° 0 mm 1 m/s 730 mmHg 95%
    04:00 +24°C° 0 mm 1 m/s 730 mmHg 95%
    05:00 +25°C° 0,6 mm 1 m/s 731 mmHg 94%
    06:00 +25°C° 0,6 mm 1 m/s 732 mmHg 93%
    07:00 +26°C° 0,6 mm 1 m/s 732 mmHg 92%
    08:00 +27°C° 0,8 mm 1 m/s 732 mmHg 86%
    09:00 +29°C° 0,8 mm 1 m/s 732 mmHg 80%
    10:00 +30°C° 0,8 mm 2 m/s 732 mmHg 74%
    11:00 +30°C° 1 mm 2 m/s 731 mmHg 77%
    12:00 +30°C° 1 mm 2 m/s 730 mmHg 79%
    13:00 +30°C° 1 mm 1 m/s 730 mmHg 81%
    14:00 +30°C° 1,2 mm 1 m/s 729 mmHg 83%
    15:00 +29°C° 1,2 mm 1 m/s 729 mmHg 85%
    16:00 +29°C° 1,2 mm 1 m/s 729 mmHg 87%
    17:00 +28°C° 0 mm 1 m/s 730 mmHg 90%
    18:00 +27°C° 0 mm 1 m/s 730 mmHg 93%
    19:00 +24°C° 0 mm 0 m/s 731 mmHg 96%
    20:00 +23°C° 0 mm 0 m/s 731 mmHg 96%
    21:00 +23°C° 0 mm 0 m/s 730 mmHg 96%
    22:00 +22°C° 0 mm 0 m/s 730 mmHg 96%
    23:00 +22°C° 0 mm 0 m/s 730 mmHg 96%

    24 Octobre, Mardi

    Heure Température Précipitation Vent Pression Humidité
    00:00 +22°C° 0 mm 0 m/s 729 mmHg 96%
    01:00 +22°C° 0 mm 0 m/s 729 mmHg 96%
    02:00 +21°C° 0 mm 0 m/s 729 mmHg 96%
    03:00 +21°C° 0 mm 0 m/s 729 mmHg 96%
    04:00 +21°C° 0 mm 0 m/s 730 mmHg 95%
    05:00 +24°C° 0 mm 1 m/s 730 mmHg 93%
    06:00 +25°C° 0 mm 1 m/s 731 mmHg 91%
    07:00 +25°C° 0 mm 1 m/s 731 mmHg 89%
    08:00 +28°C° 0,1 mm 1 m/s 731 mmHg 79%
    09:00 +30°C° 0,1 mm 1 m/s 731 mmHg 69%
    10:00 +32°C° 0,1 mm 1 m/s 731 mmHg 59%
    11:00 +33°C° 0,4 mm 1 m/s 731 mmHg 56%
    12:00 +34°C° 0,4 mm 1 m/s 730 mmHg 54%
    13:00 +35°C° 0,4 mm 1 m/s 729 mmHg 51%
    14:00 +34°C° 0,3 mm 1 m/s 729 mmHg 57%
    15:00 +33°C° 0,3 mm 1 m/s 729 mmHg 62%
    16:00 +31°C° 0,3 mm 1 m/s 728 mmHg 68%
    17:00 +30°C° 0,1 mm 1 m/s 729 mmHg 75%
    18:00 +28°C° 0,1 mm 1 m/s 729 mmHg 82%
    19:00 +26°C° 0,1 mm 1 m/s 730 mmHg 88%
    20:00 +24°C° 0,1 mm 0 m/s 730 mmHg 89%
    21:00 +24°C° 0,1 mm 0 m/s 730 mmHg 90%
    22:00 +23°C° 0,1 mm 0 m/s 730 mmHg 91%
    23:00 +23°C° 0 mm 0 m/s 730 mmHg 91%
    Voir plus